DW4465 Weather Reports


time (UTC)temp
C
wind
direction
speed
KPH
gust
KPH
rain 1hr
cm
rain 24hr
cm
rain mn
cm
humidity
%
barometer
mb
20260506044544 15 0 0.0 0.0 0.00 0.51 0.43 67 1016.5
20260506043045 16 0 0.0 1.6 0.00 0.51 0.43 66 1016.5
20260506041538 16 0 0.0 0.0 0.00 0.51 0.43 65 1016.3
20260506040040 16 0 0.0 1.6 0.00 0.51 0.43 63 1016.0
20260506034544 17 0 0.0 1.6 0.00 0.51 0.43 62 1015.8
20260506033043 17 0 0.0 3.2 0.00 0.51 0.43 60 1015.7
20260506031543 17 0 0.0 4.8 0.00 0.51 0.43 58 1015.6
20260506030040 17 0 0.0 3.2 0.00 0.51 0.43 54 1015.2
20260506024544 17 294 1.6 8.0 0.00 0.51 0.43 50 1015.0
20260506023100 17 0 0.0 4.8 0.00 0.51 0.43 50 1014.9
20260506021753 18 298 1.6 9.7 0.00 0.51 0.43 52 1014.8
20260506020039 18 300 1.6 6.4 0.00 0.51 0.43 51 1014.6
20260506014544 18 280 0.0 9.7 0.00 0.51 0.43 54 1014.5
20260506013053 18 299 1.6 8.0 0.00 0.51 0.43 55 1014.3
20260506011612 18 0 3.2 12.9 0.00 0.51 0.43 54 1014.4
20260506010055 18 281 3.2 12.9 0.00 0.51 0.43 54 1014.3
20260506004554 19 288 1.6 12.9 0.00 0.51 0.43 54 1014.2
20260506003044 19 350 1.6 9.7 0.00 0.51 0.43 56 1014.2
20260506001554 18 293 1.6 6.4 0.00 0.51 0.43 54 1014.2
20260506000047 19 0 1.6 9.7 0.00 0.51 0.43 53 1014.2
20260505234540 19 316 1.6 14.5 0.00 0.51 0.43 51 1014.3
20260505233044 21 302 1.6 11.3 0.00 0.51 0.43 47 1014.3
20260505231603 21 321 3.2 14.5 0.00 0.51 0.43 46 1014.3
20260505230044 20 158 1.6 12.9 0.00 0.51 0.43 48 1014.2
20260505224540 20 225 0.0 14.5 0.00 0.51 0.43 49 1014.3
20260505223048 20 206 4.8 14.5 0.00 0.51 0.43 45 1014.5
20260505221548 20 231 8.0 20.9 0.00 0.51 0.43 46 1014.6
20260505220048 21 250 4.8 19.3 0.00 0.51 0.43 44 1014.6
20260505214552 21 192 6.4 16.1 0.00 0.51 0.43 46 1014.8
20260505213042 20 207 6.4 16.1 0.00 0.51 0.43 48 1014.9
20260505211545 20 132 6.4 17.7 0.00 0.51 0.43 48 1014.9
20260505210046 21 180 8.0 17.7 0.00 0.51 0.43 48 1015.0
20260505204543 20 157 6.4 22.5 0.00 0.51 0.43 52 1014.9
20260505203107 20 191 6.4 19.3 0.00 0.51 0.43 53 1014.9
20260505201545 20 192 9.7 19.3 0.00 0.51 0.43 54 1014.9
20260505200047 20 134 9.7 25.7 0.00 0.51 0.43 55 1015.1
20260505194540 21 200 4.8 24.1 0.00 0.51 0.43 54 1015.0
20260505193044 20 182 6.4 17.7 0.00 0.51 0.43 54 1015.1
20260505191547 20 303 4.8 12.9 0.00 0.51 0.43 50 1015.1
20260505190043 20 299 3.2 8.0 0.00 0.51 0.43 52 1015.2
20260505184540 21 248 3.2 12.9 0.00 0.51 0.43 52 1015.2
20260505183048 21 235 3.2 12.9 0.00 0.51 0.43 51 1015.2
20260505181543 20 342 1.6 8.0 0.00 0.51 0.43 55 1015.1
20260505180051 20 192 3.2 11.3 0.00 0.51 0.43 57 1015.1
20260505174543 19 273 3.2 11.3 0.00 0.51 0.43 58 1014.9
20260505173040 18 204 3.2 17.7 0.00 0.51 0.43 61 1014.7
20260505171547 18 242 1.6 9.7 0.00 0.51 0.43 66 1014.7
20260505164544 17 230 3.2 11.3 0.00 0.51 0.43 74 1014.6
20260505163043 16 269 1.6 6.4 0.00 0.51 0.43 81 1014.6
20260505161540 16 148 1.6 8.0 0.00 0.51 0.43 85 1014.3
20260505153047 15 269 0.0 9.7 0.00 0.51 0.43 88 1014.3
20260505151556 14 0 0.0 4.8 0.00 0.51 0.43 89 1014.2
20260505124556 12 28 0.0 1.6 0.00 0.51 0.43 88 1013.6
20260505123055 12 0 0.0 0.0 0.00 0.51 0.43 89 1013.5
20260505121538 12 0 0.0 1.6 0.00 0.51 0.43 88 1013.4
20260505120042 12 0 0.0 1.6 0.05 0.51 0.43 88 1013.6
20260505114545 12 0 0.0 3.2 0.33 0.51 0.43 88 1013.5
20260505113043 13 0 0.0 1.6 0.33 0.51 0.43 88 1013.6
20260505111543 13 0 0.0 6.4 0.33 0.51 0.43 88 1013.7
20260505101552 13 0 0.0 4.8 0.05 0.18 0.10 87 1013.7
20260505100053 13 0 0.0 1.6 0.03 0.15 0.08 87 1013.7
20260505094539 13 0 0.0 3.2 0.03 0.15 0.08 87 1013.8
20260505093041 13 184 0.0 4.8 0.03 0.15 0.08 86 1014.0
20260505091544 13 0 0.0 4.8 0.03 0.13 0.05 86 1014.3
20260505090056 13 185 0.0 3.2 0.03 0.13 0.05 86 1014.2
20260505084547 13 126 0.0 3.2 0.05 0.13 0.05 86 1014.5
20260505083040 13 141 0.0 3.2 0.05 0.13 0.05 85 1014.5
20260505081544 13 0 0.0 3.2 0.03 0.10 0.03 85 1014.7
20260505080039 13 0 0.0 0.0 0.03 0.10 0.03 85 1014.8
20260505074543 13 0 0.0 0.0 0.03 0.08 0.00 84 1015.0
20260505073044 13 0 0.0 0.0 0.05 0.08 0.00 84 1015.1
20260505071542 13 0 0.0 0.0 0.05 0.08 0.00 84 1015.1
20260505070044 13 0 0.0 3.2 0.08 0.08 0.00 83 1015.1
20260505064537 13 0 0.0 1.6 0.05 0.05 0.05 83 1015.1
20260505063046 14 0 0.0 4.8 0.03 0.03 0.03 82 1015.1
20260505061546 15 148 3.2 8.0 0.03 0.03 0.03 81 1015.1
20260505060042 15 0 1.6 6.4 0.00 0.00 0.00 79 1015.1